When you browse on this site, cookies collect data to enhance your experience and personalize the content and advertising you see.
Visit our Privacy Policy to learn more. By continuing to use the site, you agree to this use of cookies and data.
  • In Latvia
  • List of Countries
  • For 7 days
  • Water Temperature
  • Satellite Maps
  • Weather Map
  • Weather Widgets
  • user-avatar
    Login

    Hourly Weather Popowice

    Today, 20 February, Wednesday

    Time Temperature Precipitation Wind Pressure Humidity
    00:00 +3°C° 0 mm 6 mps 752 mmHg 85%
    01:00 +3°C° 0 mm 4 mps 753 mmHg 87%
    02:00 +2°C° 0 mm 5 mps 753 mmHg 87%
    03:00 +2°C° 0 mm 5 mps 753 mmHg 87%
    04:00 +2°C° 0 mm 6 mps 753 mmHg 87%
    05:00 +2°C° 0 mm 6 mps 753 mmHg 85%
    06:00 +2°C° 0 mm 6 mps 753 mmHg 83%
    07:00 +3°C° 0 mm 5 mps 754 mmHg 81%
    08:00 +3°C° 0.1 mm 6 mps 754 mmHg 78%
    09:00 +3°C° 0.1 mm 7 mps 755 mmHg 75%
    10:00 +4°C° 0.1 mm 8 mps 755 mmHg 71%
    11:00 +4°C° 0.1 mm 8 mps 755 mmHg 70%
    12:00 +4°C° 0.1 mm 8 mps 756 mmHg 68%
    13:00 +4°C° 0.1 mm 8 mps 756 mmHg 66%
    14:00 +4°C° 0 mm 7 mps 756 mmHg 66%
    15:00 +4°C° 0 mm 7 mps 756 mmHg 66%
    16:00 +4°C° 0 mm 6 mps 757 mmHg 66%
    17:00 +5°C° 0 mm 5 mps 757 mmHg 68%
    18:00 +5°C° 0 mm 5 mps 757 mmHg 71%
    19:00 +4°C° 0 mm 4 mps 758 mmHg 73%
    20:00 +4°C° 0 mm 3 mps 758 mmHg 78%
    21:00 +3°C° 0 mm 3 mps 758 mmHg 84%
    22:00 +2°C° 0 mm 3 mps 759 mmHg 89%
    23:00 +2°C° 0 mm 3 mps 759 mmHg 90%

    Tomorrow, 21 February, Thursday

    Time Temperature Precipitation Wind Pressure Humidity
    00:00 +2°C° 0 mm 3 mps 759 mmHg 91%
    01:00 +3°C° 0 mm 2 mps 759 mmHg 92%
    02:00 +2°C° 0 mm 3 mps 759 mmHg 93%
    03:00 +2°C° 0 mm 3 mps 759 mmHg 93%
    04:00 +3°C° 0 mm 3 mps 759 mmHg 93%
    05:00 +3°C° 0.1 mm 3 mps 759 mmHg 93%
    06:00 +3°C° 0.1 mm 4 mps 759 mmHg 93%
    07:00 +3°C° 0.1 mm 4 mps 758 mmHg 93%
    08:00 +3°C° 0.3 mm 5 mps 758 mmHg 91%
    09:00 +3°C° 0.3 mm 5 mps 758 mmHg 88%
    10:00 +3°C° 0.3 mm 5 mps 758 mmHg 85%
    11:00 +3°C° 0.8 mm 6 mps 758 mmHg 85%
    12:00 +3°C° 0.8 mm 6 mps 757 mmHg 86%
    13:00 +4°C° 0.8 mm 6 mps 757 mmHg 86%
    14:00 +4°C° 1.1 mm 6 mps 757 mmHg 87%
    15:00 +4°C° 1.1 mm 6 mps 756 mmHg 88%
    16:00 +4°C° 1.1 mm 6 mps 756 mmHg 89%
    17:00 +4°C° 0.5 mm 6 mps 756 mmHg 89%
    18:00 +4°C° 0.5 mm 6 mps 756 mmHg 89%
    19:00 +4°C° 0.5 mm 6 mps 755 mmHg 89%
    20:00 +4°C° 0.2 mm 6 mps 755 mmHg 89%
    21:00 +5°C° 0.2 mm 6 mps 755 mmHg 90%
    22:00 +5°C° 0.2 mm 6 mps 755 mmHg 91%
    23:00 +5°C° 0.3 mm 6 mps 755 mmHg 90%

    Day after tomorrow, 22 February, Friday

    Time Temperature Precipitation Wind Pressure Humidity
    00:00 +5°C° 0.3 mm 6 mps 756 mmHg 90%
    01:00 +5°C° 0.3 mm 6 mps 756 mmHg 89%
    02:00 +3°C° 0.1 mm 6 mps 757 mmHg 87%
    03:00 +2°C° 0.1 mm 7 mps 758 mmHg 84%
    04:00 -1°C° 0.1 mm 7 mps 759 mmHg 82%
    05:00 -2°C° 0 mm 7 mps 761 mmHg 79%
    06:00 -3°C° 0 mm 7 mps 762 mmHg 76%
    07:00 -4°C° 0 mm 7 mps 763 mmHg 73%
    08:00 -3°C° 0 mm 6 mps 765 mmHg 67%
    09:00 -3°C° 0 mm 6 mps 766 mmHg 60%
    10:00 -3°C° 0 mm 6 mps 767 mmHg 54%
    11:00 -3°C° 0 mm 6 mps 768 mmHg 50%
    12:00 -1°C° 0 mm 5 mps 768 mmHg 46%
    13:00 -1°C° 0 mm 5 mps 769 mmHg 41%
    14:00 -1°C° 0 mm 5 mps 770 mmHg 41%
    15:00 -2°C° 0 mm 5 mps 770 mmHg 41%
    16:00 -2°C° 0 mm 5 mps 770 mmHg 41%
    17:00 -4°C° 0 mm 5 mps 771 mmHg 45%
    18:00 -4°C° 0 mm 4 mps 772 mmHg 48%
    19:00 -4°C° 0 mm 4 mps 772 mmHg 51%
    20:00 -4°C° 0 mm 4 mps 773 mmHg 50%
    21:00 -5°C° 0 mm 4 mps 773 mmHg 49%
    22:00 -5°C° 0 mm 3 mps 774 mmHg 49%
    23:00 -5°C° 0 mm 3 mps 774 mmHg 48%

    23 February, Saturday

    Time Temperature Precipitation Wind Pressure Humidity
    00:00 -5°C° 0 mm 3 mps 774 mmHg 47%
    01:00 -4°C° 0 mm 2 mps 774 mmHg 46%
    02:00 -4°C° 0 mm 2 mps 774 mmHg 46%
    03:00 -4°C° 0 mm 2 mps 774 mmHg 47%
    04:00 -2°C° 0 mm 1 mps 774 mmHg 48%
    05:00 -2°C° 0 mm 1 mps 774 mmHg 49%
    06:00 -2°C° 0 mm 1 mps 774 mmHg 50%
    07:00 -2°C° 0 mm 1 mps 775 mmHg 52%
    08:00 -2°C° 0 mm 1 mps 775 mmHg 48%
    09:00 -1°C° 0 mm 1 mps 775 mmHg 43%
    10:00 0°C° 0 mm 1 mps 775 mmHg 39%
    11:00 +1°C° 0 mm 1 mps 775 mmHg 37%
    12:00 +1°C° 0 mm 1 mps 774 mmHg 34%
    13:00 +2°C° 0 mm 1 mps 774 mmHg 32%
    14:00 +2°C° 0 mm 1 mps 774 mmHg 34%
    15:00 +2°C° 0 mm 1 mps 774 mmHg 37%
    16:00 +2°C° 0 mm 1 mps 773 mmHg 39%
    17:00 +1°C° 0 mm 1 mps 773 mmHg 43%
    18:00 +1°C° 0 mm 1 mps 773 mmHg 47%
    19:00 +1°C° 0 mm 1 mps 773 mmHg 50%
    20:00 0°C° 0 mm 1 mps 773 mmHg 51%
    21:00 -2°C° 0 mm 2 mps 773 mmHg 52%
    22:00 -2°C° 0 mm 2 mps 773 mmHg 53%
    23:00 -2°C° 0 mm 2 mps 772 mmHg 53%

    24 February, Sunday

    Time Temperature Precipitation Wind Pressure Humidity
    00:00 -2°C° 0 mm 2 mps 772 mmHg 54%
    01:00 -3°C° 0 mm 2 mps 772 mmHg 54%
    02:00 -2°C° 0 mm 2 mps 772 mmHg 52%
    03:00 -2°C° 0 mm 2 mps 772 mmHg 50%
    04:00 -1°C° 0 mm 2 mps 771 mmHg 48%
    05:00 -1°C° 0 mm 3 mps 771 mmHg 48%
    06:00 -2°C° 0 mm 3 mps 771 mmHg 49%
    07:00 -2°C° 0 mm 3 mps 771 mmHg 49%
    08:00 -1°C° 0 mm 3 mps 771 mmHg 47%
    09:00 0°C° 0 mm 3 mps 771 mmHg 45%
    10:00 +1°C° 0 mm 3 mps 771 mmHg 43%
    11:00 +2°C° 0 mm 3 mps 771 mmHg 45%
    12:00 +3°C° 0 mm 3 mps 770 mmHg 46%
    13:00 +4°C° 0 mm 3 mps 770 mmHg 47%
    14:00 +4°C° 0 mm 3 mps 770 mmHg 51%
    15:00 +5°C° 0 mm 2 mps 770 mmHg 54%
    16:00 +5°C° 0 mm 2 mps 769 mmHg 58%
    17:00 +4°C° 0 mm 2 mps 769 mmHg 62%
    18:00 +3°C° 0 mm 2 mps 769 mmHg 67%
    19:00 +2°C° 0 mm 2 mps 769 mmHg 71%
    20:00 +1°C° 0 mm 3 mps 769 mmHg 73%
    21:00 +1°C° 0 mm 3 mps 769 mmHg 75%
    22:00 0°C° 0 mm 3 mps 769 mmHg 77%
    23:00 0°C° 0 mm 3 mps 769 mmHg 78%

    25 February, Monday

    Time Temperature Precipitation Wind Pressure Humidity
    00:00 0°C° 0 mm 3 mps 769 mmHg 79%
    01:00 0°C° 0 mm 3 mps 769 mmHg 80%
    02:00 0°C° 0 mm 3 mps 769 mmHg 82%
    03:00 0°C° 0 mm 3 mps 768 mmHg 83%
    04:00 0°C° 0 mm 3 mps 768 mmHg 84%
    05:00 0°C° 0 mm 3 mps 768 mmHg 87%
    06:00 0°C° 0 mm 3 mps 768 mmHg 89%
    07:00 0°C° 0 mm 3 mps 768 mmHg 92%
    08:00 +1°C° 0 mm 3 mps 769 mmHg 88%
    09:00 +3°C° 0 mm 4 mps 769 mmHg 85%
    10:00 +3°C° 0 mm 5 mps 770 mmHg 81%
    11:00 +5°C° 0 mm 5 mps 770 mmHg 74%
    12:00 +6°C° 0 mm 5 mps 770 mmHg 67%
    13:00 +7°C° 0 mm 5 mps 770 mmHg 60%
    14:00 +7°C° 0 mm 4 mps 770 mmHg 59%
    15:00 +7°C° 0 mm 4 mps 770 mmHg 59%
    16:00 +6°C° 0 mm 4 mps 770 mmHg 58%
    17:00 +5°C° 0 mm 3 mps 770 mmHg 64%
    18:00 +4°C° 0 mm 3 mps 770 mmHg 69%
    19:00 +4°C° 0 mm 2 mps 770 mmHg 74%
    20:00 +3°C° 0 mm 2 mps 770 mmHg 76%
    21:00 +3°C° 0 mm 2 mps 770 mmHg 77%
    22:00 +2°C° 0 mm 2 mps 770 mmHg 78%
    23:00 +2°C° 0 mm 2 mps 770 mmHg 79%
    Show more